Location: Unspecified
(35.6961°N, 0.0000°E)
Time: 08:43:42
(UTC+00:00)

Altair - Pass Details

Date: 26 May 2019
Orbit: 1501 x 1683 km, 47.2° (Epoch: 18 June)

Event Time Altitude Azimuth Distance (km) Brightness Sun altitude
Rises 10:20:54 0° 302° (WNW) 4,917 9.9 64.4°
Reaches altitude 10° 10:24:13 10° 297° (WNW) 3,912 9.5 65.0°
Maximum altitude 10:33:42 50° 226° (SW) 1,979 8.8 66.7°
Drops below altitude 10° 10:42:50 10° 154° (SSE) 3,768 10.0 68.2°
Sets 10:45:58 0° 149° (SSE) 4,725 10.3 68.7°
